Location: Oshawa
(43.9000°N, 78.8670°W)
Time: 15:42:54
(UTC-04:00)

Cosmos 839 Rocket - Visible Passes

Search period start: 30 June 2015 00:00
Search period end: 10 July 2015 00:00
Orbit: 961 x 2092 km, 65.9° (Epoch: 26 June)

Date Brightness Start Highest point End Pass type
(mag) Time Alt. Az. Time Alt. Az. Time Alt. Az.
30 Jun 5.4 04:41:12 10° S 04:47:14 41° ESE 04:54:36 10° NE visible
01 Jul 6.0 04:00:30 10° SSE 04:05:44 26° ESE 04:12:00 10° NE visible
02 Jul 6.3 03:20:42 10° SE 03:24:21 16° E 03:28:46 10° ENE visible
03 Jul 4.8 04:34:44 10° SSW 04:41:13 63° ESE 04:49:18 10° NE visible
04 Jul 5.3 03:53:38 11° S 03:59:34 41° ESE 04:06:59 10° NE visible
05 Jul 5.9 03:13:05 11° SSE 03:18:04 26° ESE 03:24:22 10° NE visible
06 Jul 6.2 02:33:04 10° SE 02:36:42 16° E 02:41:06 10° ENE visible
06 Jul 4.5 04:29:07 12° SSW 04:35:22 90° WNW 04:43:51 10° NNE visible
07 Jul 4.7 03:48:30 18° S 03:53:33 62° ESE 04:01:41 10° NE visible
08 Jul 5.2 03:07:52 21° SSE 03:11:54 41° ESE 03:19:21 10° NE visible
08 Jul 5.2 05:05:16 10° WSW 05:11:59 47° NW 05:20:23 10° NNE visible
09 Jul 5.7 02:27:12 18° SE 02:30:25 26° ESE 02:36:44 10° NE visible
09 Jul 4.7 04:23:49 15° SW 04:29:44 65° NW 04:38:20 10° NNE visible
